Location: Caltech
(34.1382°N, 118.1253°W)
Time: 12:33:59
(UTC-07:00)

OAO 2 Rocket - Visible Passes

Search period start: 17 September 2014 00:00
Search period end: 27 September 2014 00:00
Orbit: 679 x 748 km, 35.0° (Epoch: 17 September)

Date Brightness Start Highest point End Pass type
(mag) Time Alt. Az. Time Alt. Az. Time Alt. Az.
17 Sep 4.2 19:43:13 10° SSW 19:47:32 31° SSE 19:50:31 17° E visible
17 Sep 4.8 21:27:05 10° WSW 21:29:33 30° WSW 21:29:33 30° WSW visible
18 Sep 3.2 20:30:08 10° WSW 20:35:00 64° SSE 20:35:51 54° ESE visible
18 Sep 6.3 22:14:51 10° W 22:14:52 10° W 22:14:52 10° W visible
19 Sep 3.6 19:33:18 10° SW 19:38:01 48° SSE 19:42:03 14° E visible
19 Sep 4.3 21:17:46 10° W 21:21:04 43° W 21:21:04 43° W visible
20 Sep 3.1 20:20:43 10° WSW 20:25:39 84° SSE 20:27:12 45° E visible
20 Sep 6.0 22:05:35 10° W 22:06:12 14° W 22:06:12 14° W visible
21 Sep 3.3 19:23:43 10° WSW 19:28:36 70° SSE 19:33:16 11° E visible
21 Sep 3.9 21:08:30 10° W 21:12:16 52° WNW 21:12:16 52° WNW visible
22 Sep 3.2 20:11:25 10° W 20:16:21 83° N 20:18:18 37° E visible
22 Sep 5.9 21:56:18 10° W 21:57:18 16° W 21:57:18 16° W visible
23 Sep 3.3 19:14:20 10° W 19:19:15 89° S 19:24:13 10° E visible
23 Sep 3.7 20:59:14 10° W 21:03:18 61° WNW 21:03:18 61° WNW visible
24 Sep 3.2 20:02:08 10° W 20:07:04 80° N 20:09:17 33° E visible
24 Sep 5.7 21:47:00 10° W 21:48:17 18° W 21:48:17 18° W visible
25 Sep 3.3 19:05:02 10° W 19:09:58 81° N 19:14:54 10° E visible
25 Sep 3.4 20:49:55 10° W 20:54:16 68° W 20:54:16 68° W visible
26 Sep 3.2 19:52:51 10° W 19:57:47 87° N 20:00:15 30° E visible
26 Sep 5.6 21:37:46 10° W 21:39:15 19° W 21:39:15 19° W visible
